utcTime,localTime,pm25,nowcast
2022-09-09 15:00:00 +0000,2022-09-09 08:00:00 -0700,5.9,NA
2022-09-09 16:00:00 +0000,2022-09-09 09:00:00 -0700,6.9,6.4
2022-09-09 17:00:00 +0000,2022-09-09 10:00:00 -0700,5.6,6.1
2022-09-09 18:00:00 +0000,2022-09-09 11:00:00 -0700,7,6.4
2022-09-09 19:00:00 +0000,2022-09-09 12:00:00 -0700,5.3,6
2022-09-09 20:00:00 +0000,2022-09-09 13:00:00 -0700,5.2,5.7
2022-09-09 21:00:00 +0000,2022-09-09 14:00:00 -0700,5.2,5.6
2022-09-09 22:00:00 +0000,2022-09-09 15:00:00 -0700,6.9,5.9
2022-09-09 23:00:00 +0000,2022-09-09 16:00:00 -0700,7.2,6.3
2022-09-10 00:00:00 +0000,2022-09-09 17:00:00 -0700,9.8,8.1
2022-09-10 01:00:00 +0000,2022-09-09 18:00:00 -0700,8.5,8.2
2022-09-10 02:00:00 +0000,2022-09-09 19:00:00 -0700,9.9,9
2022-09-10 03:00:00 +0000,2022-09-09 20:00:00 -0700,12.8,10.9
2022-09-10 04:00:00 +0000,2022-09-09 21:00:00 -0700,12.4,11.6
2022-09-10 05:00:00 +0000,2022-09-09 22:00:00 -0700,8.9,10.2
2022-09-10 06:00:00 +0000,2022-09-09 23:00:00 -0700,5.8,8
2022-09-10 07:00:00 +0000,2022-09-10 00:00:00 -0700,7.7,7.8
2022-09-10 08:00:00 +0000,2022-09-10 01:00:00 -0700,6.6,7.2
2022-09-10 09:00:00 +0000,2022-09-10 02:00:00 -0700,7.1,7.1
2022-09-10 10:00:00 +0000,2022-09-10 03:00:00 -0700,8.9,8
2022-09-10 11:00:00 +0000,2022-09-10 04:00:00 -0700,7.1,7.5
2022-09-10 12:00:00 +0000,2022-09-10 05:00:00 -0700,8.2,7.8
2022-09-10 13:00:00 +0000,2022-09-10 06:00:00 -0700,8.8,8.3
2022-09-10 14:00:00 +0000,2022-09-10 07:00:00 -0700,10.3,9.3
2022-09-10 15:00:00 +0000,2022-09-10 08:00:00 -0700,15.2,12.2
2022-09-10 16:00:00 +0000,2022-09-10 09:00:00 -0700,36.7,24.4
2022-09-10 17:00:00 +0000,2022-09-10 10:00:00 -0700,53.2,38.8
2022-09-10 18:00:00 +0000,2022-09-10 11:00:00 -0700,97.1,67.9
2022-09-10 19:00:00 +0000,2022-09-10 12:00:00 -0700,117.6,92.8
2022-09-10 20:00:00 +0000,2022-09-10 13:00:00 -0700,70.1,81.4
2022-09-10 21:00:00 +0000,2022-09-10 14:00:00 -0700,62.8,72.1
2022-09-10 22:00:00 +0000,2022-09-10 15:00:00 -0700,53.7,62.9
2022-09-10 23:00:00 +0000,2022-09-10 16:00:00 -0700,50,56.4
2022-09-11 00:00:00 +0000,2022-09-10 17:00:00 -0700,11,33.7
2022-09-11 01:00:00 +0000,2022-09-10 18:00:00 -0700,12.2,22.9
2022-09-11 02:00:00 +0000,2022-09-10 19:00:00 -0700,12.8,17.8
2022-09-11 03:00:00 +0000,2022-09-10 20:00:00 -0700,12.2,15
2022-09-11 04:00:00 +0000,2022-09-10 21:00:00 -0700,13.1,14
2022-09-11 05:00:00 +0000,2022-09-10 22:00:00 -0700,11,12.5
2022-09-11 06:00:00 +0000,2022-09-10 23:00:00 -0700,17.7,15.1
2022-09-11 07:00:00 +0000,2022-09-11 00:00:00 -0700,22.4,18.7
2022-09-11 08:00:00 +0000,2022-09-11 01:00:00 -0700,26.3,22.5
2022-09-11 09:00:00 +0000,2022-09-11 02:00:00 -0700,36.5,29.5
2022-09-11 10:00:00 +0000,2022-09-11 03:00:00 -0700,63.5,46.5
2022-09-11 11:00:00 +0000,2022-09-11 04:00:00 -0700,62.3,54.4
2022-09-11 12:00:00 +0000,2022-09-11 05:00:00 -0700,73.9,64.1
2022-09-11 13:00:00 +0000,2022-09-11 06:00:00 -0700,113.4,88.7
2022-09-11 14:00:00 +0000,2022-09-11 07:00:00 -0700,113,100.9
2022-09-11 15:00:00 +0000,2022-09-11 08:00:00 -0700,103.9,102.4
2022-09-11 16:00:00 +0000,2022-09-11 09:00:00 -0700,108.5,105.4
2022-09-11 17:00:00 +0000,2022-09-11 10:00:00 -0700,135.9,120.6
2022-09-11 18:00:00 +0000,2022-09-11 11:00:00 -0700,167.7,144.2
2022-09-11 19:00:00 +0000,2022-09-11 12:00:00 -0700,202.1,173.1
2022-09-11 20:00:00 +0000,2022-09-11 13:00:00 -0700,189.6,181.4
2022-09-11 21:00:00 +0000,2022-09-11 14:00:00 -0700,147.5,164.4
2022-09-11 22:00:00 +0000,2022-09-11 15:00:00 -0700,90.4,127.4
2022-09-11 23:00:00 +0000,2022-09-11 16:00:00 -0700,30.1,78.7
2022-09-12 00:00:00 +0000,2022-09-11 17:00:00 -0700,27.1,52.9
2022-09-12 01:00:00 +0000,2022-09-11 18:00:00 -0700,25.3,39.1
2022-09-12 02:00:00 +0000,2022-09-11 19:00:00 -0700,24.9,31.9
2022-09-12 03:00:00 +0000,2022-09-11 20:00:00 -0700,25.3,28.6
2022-09-12 04:00:00 +0000,2022-09-11 21:00:00 -0700,21.7,25.1
2022-09-12 05:00:00 +0000,2022-09-11 22:00:00 -0700,20.4,22.7
2022-09-12 06:00:00 +0000,2022-09-11 23:00:00 -0700,20.3,21.5
2022-09-12 07:00:00 +0000,2022-09-12 00:00:00 -0700,21,21.2
2022-09-12 08:00:00 +0000,2022-09-12 01:00:00 -0700,20.3,20.7
2022-09-12 09:00:00 +0000,2022-09-12 02:00:00 -0700,21.4,21
2022-09-12 10:00:00 +0000,2022-09-12 03:00:00 -0700,22.8,21.7
2022-09-12 11:00:00 +0000,2022-09-12 04:00:00 -0700,22.7,22
2022-09-12 12:00:00 +0000,2022-09-12 05:00:00 -0700,20,21.5
2022-09-12 13:00:00 +0000,2022-09-12 06:00:00 -0700,17.8,20.3
2022-09-12 14:00:00 +0000,2022-09-12 07:00:00 -0700,15.5,18.2
2022-09-12 15:00:00 +0000,2022-09-12 08:00:00 -0700,17.4,18.2
2022-09-12 16:00:00 +0000,2022-09-12 09:00:00 -0700,17.3,17.9
2022-09-12 17:00:00 +0000,2022-09-12 10:00:00 -0700,17.3,17.7
2022-09-12 18:00:00 +0000,2022-09-12 11:00:00 -0700,18.4,17.9
2022-09-12 19:00:00 +0000,2022-09-12 12:00:00 -0700,20.8,18.8
2022-09-12 20:00:00 +0000,2022-09-12 13:00:00 -0700,19.3,18.9
2022-09-12 21:00:00 +0000,2022-09-12 14:00:00 -0700,17.5,18.4
2022-09-12 22:00:00 +0000,2022-09-12 15:00:00 -0700,18,18.3
2022-09-12 23:00:00 +0000,2022-09-12 16:00:00 -0700,20.6,18.9
2022-09-13 00:00:00 +0000,2022-09-12 17:00:00 -0700,19.8,19.1
2022-09-13 01:00:00 +0000,2022-09-12 18:00:00 -0700,20.8,19.5
2022-09-13 02:00:00 +0000,2022-09-12 19:00:00 -0700,19.6,19.4
2022-09-13 03:00:00 +0000,2022-09-12 20:00:00 -0700,19.4,19.4
2022-09-13 04:00:00 +0000,2022-09-12 21:00:00 -0700,19.6,19.5
2022-09-13 05:00:00 +0000,2022-09-12 22:00:00 -0700,20,19.6
2022-09-13 06:00:00 +0000,2022-09-12 23:00:00 -0700,17.2,19.2
2022-09-13 07:00:00 +0000,2022-09-13 00:00:00 -0700,16.5,18.5
2022-09-13 08:00:00 +0000,2022-09-13 01:00:00 -0700,17.2,18.2
2022-09-13 09:00:00 +0000,2022-09-13 02:00:00 -0700,16.6,17.8
2022-09-13 10:00:00 +0000,2022-09-13 03:00:00 -0700,17.7,17.8
2022-09-13 11:00:00 +0000,2022-09-13 04:00:00 -0700,18,17.8
2022-09-13 12:00:00 +0000,2022-09-13 05:00:00 -0700,17.2,17.6
2022-09-13 13:00:00 +0000,2022-09-13 06:00:00 -0700,10.6,14.2
2022-09-13 14:00:00 +0000,2022-09-13 07:00:00 -0700,8.9,11.4
2022-09-13 15:00:00 +0000,2022-09-13 08:00:00 -0700,9.1,10.2
2022-09-13 16:00:00 +0000,2022-09-13 09:00:00 -0700,10.8,10.5
2022-09-13 17:00:00 +0000,2022-09-13 10:00:00 -0700,13.5,12
2022-09-13 18:00:00 +0000,2022-09-13 11:00:00 -0700,14.6,13.3
2022-09-13 19:00:00 +0000,2022-09-13 12:00:00 -0700,15.2,14.2
2022-09-13 20:00:00 +0000,2022-09-13 13:00:00 -0700,16.8,15.5
2022-09-13 21:00:00 +0000,2022-09-13 14:00:00 -0700,13.7,14.6
2022-09-13 22:00:00 +0000,2022-09-13 15:00:00 -0700,14.7,14.6
2022-09-13 23:00:00 +0000,2022-09-13 16:00:00 -0700,14.7,14.6
2022-09-14 00:00:00 +0000,2022-09-13 17:00:00 -0700,14.9,14.7
2022-09-14 01:00:00 +0000,2022-09-13 18:00:00 -0700,14.8,14.7
2022-09-14 02:00:00 +0000,2022-09-13 19:00:00 -0700,NA,NA
2022-09-14 03:00:00 +0000,2022-09-13 20:00:00 -0700,NA,NA
2022-09-14 04:00:00 +0000,2022-09-13 21:00:00 -0700,30.1,NA
2022-09-14 05:00:00 +0000,2022-09-13 22:00:00 -0700,32.8,30.5
2022-09-14 06:00:00 +0000,2022-09-13 23:00:00 -0700,32.9,31.8
2022-09-14 07:00:00 +0000,2022-09-14 00:00:00 -0700,29.9,30.8
2022-09-14 08:00:00 +0000,2022-09-14 01:00:00 -0700,28.9,29.8
2022-09-14 09:00:00 +0000,2022-09-14 02:00:00 -0700,28.2,29
2022-09-14 10:00:00 +0000,2022-09-14 03:00:00 -0700,28,28.5
2022-09-14 11:00:00 +0000,2022-09-14 04:00:00 -0700,26.7,27.6
2022-09-14 12:00:00 +0000,2022-09-14 05:00:00 -0700,23.9,25.7
2022-09-14 13:00:00 +0000,2022-09-14 06:00:00 -0700,15.9,20.8
2022-09-14 14:00:00 +0000,2022-09-14 07:00:00 -0700,11.4,16.1
2022-09-14 15:00:00 +0000,2022-09-14 08:00:00 -0700,10.5,13.3
2022-09-14 16:00:00 +0000,2022-09-14 09:00:00 -0700,10.6,11.9
2022-09-14 17:00:00 +0000,2022-09-14 10:00:00 -0700,12.8,12.3
2022-09-14 18:00:00 +0000,2022-09-14 11:00:00 -0700,16.5,14.4
2022-09-14 19:00:00 +0000,2022-09-14 12:00:00 -0700,18.3,16.3
2022-09-14 20:00:00 +0000,2022-09-14 13:00:00 -0700,16,16.1
2022-09-14 21:00:00 +0000,2022-09-14 14:00:00 -0700,17.4,16.7
2022-09-14 22:00:00 +0000,2022-09-14 15:00:00 -0700,19.2,17.9
2022-09-14 23:00:00 +0000,2022-09-14 16:00:00 -0700,17.8,17.8
2022-09-15 00:00:00 +0000,2022-09-14 17:00:00 -0700,17,17.4
2022-09-15 01:00:00 +0000,2022-09-14 18:00:00 -0700,14.4,16
2022-09-15 02:00:00 +0000,2022-09-14 19:00:00 -0700,16.3,16.1
2022-09-15 03:00:00 +0000,2022-09-14 20:00:00 -0700,19.4,17.6
2022-09-15 04:00:00 +0000,2022-09-14 21:00:00 -0700,18.9,17.9
2022-09-15 05:00:00 +0000,2022-09-14 22:00:00 -0700,21.3,19
2022-09-15 06:00:00 +0000,2022-09-14 23:00:00 -0700,16.9,18.3
2022-09-15 07:00:00 +0000,2022-09-15 00:00:00 -0700,14.4,17
2022-09-15 08:00:00 +0000,2022-09-15 01:00:00 -0700,13.4,15.5
2022-09-15 09:00:00 +0000,2022-09-15 02:00:00 -0700,10.5,12.6
2022-09-15 10:00:00 +0000,2022-09-15 03:00:00 -0700,9,10.8
2022-09-15 11:00:00 +0000,2022-09-15 04:00:00 -0700,8.8,9.8
2022-09-15 12:00:00 +0000,2022-09-15 05:00:00 -0700,9.5,9.6
2022-09-15 13:00:00 +0000,2022-09-15 06:00:00 -0700,9.4,9.5
2022-09-15 14:00:00 +0000,2022-09-15 07:00:00 -0700,9,9.2
2022-09-15 15:00:00 +0000,2022-09-15 08:00:00 -0700,7.3,8.2
2022-09-15 16:00:00 +0000,2022-09-15 09:00:00 -0700,5.7,6.9
2022-09-15 17:00:00 +0000,2022-09-15 10:00:00 -0700,5.9,6.4
2022-09-15 18:00:00 +0000,2022-09-15 11:00:00 -0700,5.4,5.9
2022-09-15 19:00:00 +0000,2022-09-15 12:00:00 -0700,5.4,5.6
2022-09-15 20:00:00 +0000,2022-09-15 13:00:00 -0700,6.1,5.8
2022-09-15 21:00:00 +0000,2022-09-15 14:00:00 -0700,4.7,5.2
2022-09-15 22:00:00 +0000,2022-09-15 15:00:00 -0700,5.5,5.3
2022-09-15 23:00:00 +0000,2022-09-15 16:00:00 -0700,4.4,4.8
2022-09-16 00:00:00 +0000,2022-09-15 17:00:00 -0700,3.9,4.3
2022-09-16 01:00:00 +0000,2022-09-15 18:00:00 -0700,4.2,4.2
2022-09-16 02:00:00 +0000,2022-09-15 19:00:00 -0700,4.2,4.2
2022-09-16 03:00:00 +0000,2022-09-15 20:00:00 -0700,4.7,4.4
2022-09-16 04:00:00 +0000,2022-09-15 21:00:00 -0700,5,4.6
2022-09-16 05:00:00 +0000,2022-09-15 22:00:00 -0700,5.6,5
2022-09-16 06:00:00 +0000,2022-09-15 23:00:00 -0700,6.1,5.4
2022-09-16 07:00:00 +0000,2022-09-16 00:00:00 -0700,4.8,5.1
2022-09-16 08:00:00 +0000,2022-09-16 01:00:00 -0700,5.2,5.1
2022-09-16 09:00:00 +0000,2022-09-16 02:00:00 -0700,2.2,3.7
2022-09-16 10:00:00 +0000,2022-09-16 03:00:00 -0700,1.5,2.6
2022-09-16 11:00:00 +0000,2022-09-16 04:00:00 -0700,1.5,2
2022-09-16 12:00:00 +0000,2022-09-16 05:00:00 -0700,1.6,1.8
2022-09-16 13:00:00 +0000,2022-09-16 06:00:00 -0700,1.4,1.6
2022-09-16 14:00:00 +0000,2022-09-16 07:00:00 -0700,1.3,1.4
2022-09-16 15:00:00 +0000,2022-09-16 08:00:00 -0700,0.8,1.1
2022-09-16 16:00:00 +0000,2022-09-16 09:00:00 -0700,0.7,0.9
2022-09-16 17:00:00 +0000,2022-09-16 10:00:00 -0700,0.8,0.8
2022-09-16 18:00:00 +0000,2022-09-16 11:00:00 -0700,0.7,0.7
2022-09-16 19:00:00 +0000,2022-09-16 12:00:00 -0700,0.6,0.6
2022-09-16 20:00:00 +0000,2022-09-16 13:00:00 -0700,0.6,0.6
2022-09-16 21:00:00 +0000,2022-09-16 14:00:00 -0700,0.8,0.7
2022-09-16 22:00:00 +0000,2022-09-16 15:00:00 -0700,0.9,0.8
2022-09-16 23:00:00 +0000,2022-09-16 16:00:00 -0700,0.9,0.8
2022-09-17 00:00:00 +0000,2022-09-16 17:00:00 -0700,0.7,0.7
2022-09-17 01:00:00 +0000,2022-09-16 18:00:00 -0700,0.8,0.7
2022-09-17 02:00:00 +0000,2022-09-16 19:00:00 -0700,0.9,0.8
2022-09-17 03:00:00 +0000,2022-09-16 20:00:00 -0700,1,0.8
2022-09-17 04:00:00 +0000,2022-09-16 21:00:00 -0700,1.6,1.2
2022-09-17 05:00:00 +0000,2022-09-16 22:00:00 -0700,1.3,1.2
2022-09-17 06:00:00 +0000,2022-09-16 23:00:00 -0700,1.3,1.2
2022-09-17 07:00:00 +0000,2022-09-17 00:00:00 -0700,1.5,1.3
2022-09-17 08:00:00 +0000,2022-09-17 01:00:00 -0700,1.3,1.3
2022-09-17 09:00:00 +0000,2022-09-17 02:00:00 -0700,1.3,1.3
2022-09-17 10:00:00 +0000,2022-09-17 03:00:00 -0700,2.2,1.7
2022-09-17 11:00:00 +0000,2022-09-17 04:00:00 -0700,4,2.8
2022-09-17 12:00:00 +0000,2022-09-17 05:00:00 -0700,4.2,3.5
2022-09-17 13:00:00 +0000,2022-09-17 06:00:00 -0700,4.1,3.8
2022-09-17 14:00:00 +0000,2022-09-17 07:00:00 -0700,2.4,3.1
2022-09-17 15:00:00 +0000,2022-09-17 08:00:00 -0700,2.4,2.7
2022-09-17 16:00:00 +0000,2022-09-17 09:00:00 -0700,1.2,1.9
2022-09-17 17:00:00 +0000,2022-09-17 10:00:00 -0700,1.6,1.7
2022-09-17 18:00:00 +0000,2022-09-17 11:00:00 -0700,1.6,1.6
2022-09-17 19:00:00 +0000,2022-09-17 12:00:00 -0700,2.5,2
2022-09-17 20:00:00 +0000,2022-09-17 13:00:00 -0700,3,2.5
2022-09-17 21:00:00 +0000,2022-09-17 14:00:00 -0700,2.8,2.6
2022-09-17 22:00:00 +0000,2022-09-17 15:00:00 -0700,2.4,2.5
2022-09-17 23:00:00 +0000,2022-09-17 16:00:00 -0700,2.5,2.5
2022-09-18 00:00:00 +0000,2022-09-17 17:00:00 -0700,5.4,3.9
2022-09-18 01:00:00 +0000,2022-09-17 18:00:00 -0700,7.1,5.5
2022-09-18 02:00:00 +0000,2022-09-17 19:00:00 -0700,7.2,6.3
2022-09-18 03:00:00 +0000,2022-09-17 20:00:00 -0700,8.3,7.3
2022-09-18 04:00:00 +0000,2022-09-17 21:00:00 -0700,6.2,6.7
2022-09-18 05:00:00 +0000,2022-09-17 22:00:00 -0700,5.7,6.2
2022-09-18 06:00:00 +0000,2022-09-17 23:00:00 -0700,4.9,5.5
2022-09-18 07:00:00 +0000,2022-09-18 00:00:00 -0700,2.6,4
2022-09-18 08:00:00 +0000,2022-09-18 01:00:00 -0700,2.4,3.2
2022-09-18 09:00:00 +0000,2022-09-18 02:00:00 -0700,2.3,2.7
2022-09-18 10:00:00 +0000,2022-09-18 03:00:00 -0700,2,2.3
2022-09-18 11:00:00 +0000,2022-09-18 04:00:00 -0700,2.2,2.2
2022-09-18 12:00:00 +0000,2022-09-18 05:00:00 -0700,2.8,2.5
2022-09-18 13:00:00 +0000,2022-09-18 06:00:00 -0700,2.3,2.4
2022-09-18 14:00:00 +0000,2022-09-18 07:00:00 -0700,2.1,2.2
2022-09-18 15:00:00 +0000,2022-09-18 08:00:00 -0700,2.4,2.3
2022-09-18 16:00:00 +0000,2022-09-18 09:00:00 -0700,2.7,2.5
2022-09-18 17:00:00 +0000,2022-09-18 10:00:00 -0700,2.7,2.6
2022-09-18 18:00:00 +0000,2022-09-18 11:00:00 -0700,2,2.3
2022-09-18 19:00:00 +0000,2022-09-18 12:00:00 -0700,2.8,2.4
2022-09-18 20:00:00 +0000,2022-09-18 13:00:00 -0700,4.1,3.3
2022-09-18 21:00:00 +0000,2022-09-18 14:00:00 -0700,4.2,3.7
2022-09-18 22:00:00 +0000,2022-09-18 15:00:00 -0700,2.7,3.2
2022-09-18 23:00:00 +0000,2022-09-18 16:00:00 -0700,3.3,3.2
2022-09-19 00:00:00 +0000,2022-09-18 17:00:00 -0700,3,3.1
2022-09-19 01:00:00 +0000,2022-09-18 18:00:00 -0700,2.7,2.9
2022-09-19 02:00:00 +0000,2022-09-18 19:00:00 -0700,3.2,3
2022-09-19 03:00:00 +0000,2022-09-18 20:00:00 -0700,3.3,3.1
2022-09-19 04:00:00 +0000,2022-09-18 21:00:00 -0700,5.1,4.1
2022-09-19 05:00:00 +0000,2022-09-18 22:00:00 -0700,5.7,4.9
2022-09-19 06:00:00 +0000,2022-09-18 23:00:00 -0700,5.1,5
2022-09-19 07:00:00 +0000,2022-09-19 00:00:00 -0700,4.4,4.7
2022-09-19 08:00:00 +0000,2022-09-19 01:00:00 -0700,5.5,5.1
2022-09-19 09:00:00 +0000,2022-09-19 02:00:00 -0700,6.4,5.7
2022-09-19 10:00:00 +0000,2022-09-19 03:00:00 -0700,6.2,5.9
2022-09-19 11:00:00 +0000,2022-09-19 04:00:00 -0700,6.3,6.1
2022-09-19 12:00:00 +0000,2022-09-19 05:00:00 -0700,6.3,6.2
2022-09-19 13:00:00 +0000,2022-09-19 06:00:00 -0700,6.3,6.2
2022-09-19 14:00:00 +0000,2022-09-19 07:00:00 -0700,6,6.1
2022-09-19 15:00:00 +0000,2022-09-19 08:00:00 -0700,NA,NA
